Location: Keppel Henge
(44.7900°N, 80.9447°W)
Time: 01:33:18
(UTC-04:00)

Vanguard 2 - Visible Passes

Search period start: 19 October 2017 00:00
Search period end: 29 October 2017 00:00
Orbit: 554 x 2939 km, 32.9° (Epoch: 18 October)

Date Brightness Start Highest point End Pass type
(mag) Time Alt. Az. Time Alt. Az. Time Alt. Az.
19 Oct 12.3 06:36:33 10° SSE 06:37:47 10° SE 06:39:00 10° SE visible
20 Oct 12.0 06:47:44 10° S 06:55:42 15° SE 07:02:36 10° ESE visible
21 Oct 11.9 07:02:48 10° S 07:13:38 21° SSE 07:22:27 10° ESE visible
22 Oct 11.7 07:18:54 10° SSW 07:31:35 27° SSE 07:41:30 10° ESE visible
23 Oct 12.0 05:31:37 10° SSE 05:39:26 15° SE 05:46:35 10° ESE visible
24 Oct 11.8 05:46:12 10° S 05:57:13 20° SE 06:06:57 10° ESE visible
25 Oct 11.6 06:02:00 10° SSW 06:15:01 26° SSE 06:26:14 10° E visible
26 Oct 11.9 04:17:02 10° SSE 04:22:58 12° SE 04:28:45 10° ESE visible
26 Oct 11.4 06:18:28 10° SSW 06:32:51 32° SSE 06:45:01 10° E visible
27 Oct 11.8 04:30:34 10° S 04:40:34 18° SE 04:50:12 10° ESE visible
27 Oct 11.3 06:35:23 10° SW 06:50:45 38° SSE 07:03:31 10° E visible
28 Oct 11.6 04:45:57 10° S 04:58:12 24° SE 05:09:57 10° E visible
28 Oct 11.1 06:52:38 10° SW 07:08:41 43° SSE 07:21:50 10° E visible
